When you browse on this site, cookies collect data to enhance your experience and personalize the content and advertising you see.
Visit our Privacy Policy to learn more. By continuing to use the site, you agree to this use of cookies and data.
  • In Schweiz
  • Länderverzeichnis
  • Für 7 Tage
  • Wassertemperatur
  • Wetterkarte
  • Widgets
  • user-avatar
    Anmelden

    Stündliche Wetter Barisal

    Heute, 16 Oktober, Mittwoch

    Zeit Temperatur Niederschläge Wind Luftdruck Luftfeuchtigkeit
    00:00 +27°C° 0 mm 1 m/S 759 mmHg 84%
    01:00 +27°C° 0.1 mm 1 m/S 758 mmHg 85%
    02:00 +27°C° 0.1 mm 1 m/S 758 mmHg 85%
    03:00 +27°C° 0.1 mm 1 m/S 758 mmHg 86%
    04:00 +26°C° 0 mm 1 m/S 758 mmHg 86%
    05:00 +26°C° 0 mm 1 m/S 758 mmHg 86%
    06:00 +26°C° 0 mm 1 m/S 759 mmHg 85%
    07:00 +28°C° 0 mm 1 m/S 759 mmHg 80%
    08:00 +29°C° 0 mm 1 m/S 759 mmHg 75%
    09:00 +31°C° 0 mm 1 m/S 760 mmHg 70%
    10:00 +32°C° 0 mm 1 m/S 759 mmHg 66%
    11:00 +33°C° 0 mm 1 m/S 759 mmHg 62%
    12:00 +34°C° 0 mm 1 m/S 759 mmHg 57%
    13:00 +34°C° 0.3 mm 1 m/S 758 mmHg 57%
    14:00 +34°C° 0.3 mm 1 m/S 757 mmHg 57%
    15:00 +34°C° 0.3 mm 1 m/S 756 mmHg 58%
    16:00 +32°C° 0.2 mm 1 m/S 757 mmHg 64%
    17:00 +31°C° 0.2 mm 1 m/S 757 mmHg 70%
    18:00 +29°C° 0 mm 3 m/S 758 mmHg 78%
    19:00 +29°C° 0.1 mm 2 m/S 758 mmHg 80%
    20:00 +28°C° 0.1 mm 2 m/S 758 mmHg 82%
    21:00 +28°C° 0.1 mm 1 m/S 758 mmHg 84%
    22:00 +27°C° 0.2 mm 1 m/S 758 mmHg 85%
    23:00 +27°C° 0.2 mm 1 m/S 758 mmHg 86%

    Morgen, 17 Oktober, Donnerstag

    Zeit Temperatur Niederschläge Wind Luftdruck Luftfeuchtigkeit
    00:00 +27°C° 0.2 mm 1 m/S 758 mmHg 87%
    01:00 +27°C° 0.2 mm 1 m/S 758 mmHg 88%
    02:00 +27°C° 0.2 mm 1 m/S 758 mmHg 88%
    03:00 +26°C° 0.2 mm 1 m/S 758 mmHg 88%
    04:00 +26°C° 0.6 mm 1 m/S 758 mmHg 89%
    05:00 +26°C° 0.6 mm 1 m/S 758 mmHg 90%
    06:00 +26°C° 0.6 mm 1 m/S 758 mmHg 92%
    07:00 +27°C° 0.1 mm 1 m/S 759 mmHg 86%
    08:00 +29°C° 0.1 mm 1 m/S 759 mmHg 80%
    09:00 +30°C° 0.1 mm 1 m/S 760 mmHg 75%
    10:00 +31°C° 0 mm 1 m/S 759 mmHg 70%
    11:00 +32°C° 0 mm 1 m/S 759 mmHg 65%
    12:00 +34°C° 0 mm 1 m/S 758 mmHg 60%
    13:00 +34°C° 0 mm 1 m/S 757 mmHg 60%
    14:00 +34°C° 0 mm 1 m/S 757 mmHg 60%
    15:00 +34°C° 0 mm 1 m/S 756 mmHg 60%
    16:00 +32°C° 0.1 mm 1 m/S 756 mmHg 65%
    17:00 +31°C° 0.1 mm 1 m/S 756 mmHg 70%
    18:00 +30°C° 0.1 mm 1 m/S 756 mmHg 75%
    19:00 +29°C° 0 mm 1 m/S 757 mmHg 78%
    20:00 +29°C° 0 mm 2 m/S 757 mmHg 81%
    21:00 +28°C° 0 mm 2 m/S 758 mmHg 84%
    22:00 +28°C° 0 mm 2 m/S 758 mmHg 85%
    23:00 +28°C° 0 mm 2 m/S 758 mmHg 86%

    übermorgen, 18 Oktober, Freitag

    Zeit Temperatur Niederschläge Wind Luftdruck Luftfeuchtigkeit
    00:00 +27°C° 0 mm 2 m/S 758 mmHg 87%
    01:00 +27°C° 0.2 mm 2 m/S 758 mmHg 88%
    02:00 +27°C° 0.2 mm 1 m/S 758 mmHg 88%
    03:00 +27°C° 0.2 mm 1 m/S 757 mmHg 89%
    04:00 +27°C° 0.1 mm 1 m/S 758 mmHg 89%
    05:00 +26°C° 0.1 mm 1 m/S 758 mmHg 89%
    06:00 +26°C° 0.1 mm 1 m/S 758 mmHg 89%
    07:00 +28°C° 0 mm 2 m/S 758 mmHg 83%
    08:00 +30°C° 0 mm 2 m/S 759 mmHg 78%
    09:00 +31°C° 0 mm 2 m/S 759 mmHg 73%
    10:00 +32°C° 0 mm 2 m/S 759 mmHg 69%
    11:00 +34°C° 0 mm 2 m/S 758 mmHg 64%
    12:00 +35°C° 0 mm 2 m/S 758 mmHg 60%
    13:00 +35°C° 0 mm 2 m/S 757 mmHg 60%
    14:00 +35°C° 0 mm 2 m/S 757 mmHg 61%
    15:00 +34°C° 0 mm 1 m/S 756 mmHg 61%
    16:00 +33°C° 0 mm 1 m/S 756 mmHg 65%
    17:00 +31°C° 0 mm 1 m/S 756 mmHg 70%
    18:00 +30°C° 0 mm 1 m/S 756 mmHg 74%
    19:00 +30°C° 0 mm 1 m/S 757 mmHg 77%
    20:00 +29°C° 0 mm 2 m/S 757 mmHg 80%
    21:00 +28°C° 0 mm 2 m/S 758 mmHg 83%
    22:00 +28°C° 0 mm 2 m/S 758 mmHg 85%
    23:00 +28°C° 0 mm 2 m/S 758 mmHg 86%

    19 Oktober, Samstag

    Zeit Temperatur Niederschläge Wind Luftdruck Luftfeuchtigkeit
    00:00 +28°C° 0 mm 2 m/S 758 mmHg 87%
    01:00 +27°C° 0 mm 2 m/S 758 mmHg 87%
    02:00 +27°C° 0 mm 2 m/S 758 mmHg 86%
    03:00 +27°C° 0 mm 2 m/S 758 mmHg 85%
    04:00 +27°C° 0 mm 2 m/S 758 mmHg 84%
    05:00 +27°C° 0 mm 2 m/S 758 mmHg 83%
    06:00 +26°C° 0 mm 2 m/S 758 mmHg 83%
    07:00 +28°C° 0 mm 2 m/S 759 mmHg 79%
    08:00 +30°C° 0 mm 2 m/S 759 mmHg 75%
    09:00 +31°C° 0 mm 2 m/S 760 mmHg 71%
    10:00 +32°C° 0 mm 2 m/S 759 mmHg 66%
    11:00 +34°C° 0 mm 2 m/S 759 mmHg 62%
    12:00 +34°C° 0 mm 1 m/S 759 mmHg 58%
    13:00 +34°C° 0 mm 1 m/S 758 mmHg 57%
    14:00 +34°C° 0 mm 1 m/S 757 mmHg 56%
    15:00 +36°C° 0 mm 2 m/S 757 mmHg 56%
    16:00 +33°C° 0 mm 1 m/S 757 mmHg 61%
    17:00 +32°C° 0 mm 1 m/S 757 mmHg 66%
    18:00 +30°C° 0 mm 1 m/S 757 mmHg 71%
    19:00 +30°C° 0 mm 1 m/S 757 mmHg 74%
    20:00 +29°C° 0 mm 1 m/S 758 mmHg 76%
    21:00 +28°C° 0 mm 2 m/S 758 mmHg 79%
    22:00 +28°C° 0 mm 2 m/S 758 mmHg 79%
    23:00 +28°C° 0 mm 2 m/S 758 mmHg 78%

    20 Oktober, Sonntag

    Zeit Temperatur Niederschläge Wind Luftdruck Luftfeuchtigkeit
    00:00 +27°C° 0 mm 1 m/S 758 mmHg 78%
    01:00 +27°C° 0 mm 1 m/S 758 mmHg 77%
    02:00 +27°C° 0 mm 1 m/S 758 mmHg 76%
    03:00 +27°C° 0 mm 1 m/S 758 mmHg 75%
    04:00 +26°C° 0 mm 1 m/S 758 mmHg 76%
    05:00 +26°C° 0 mm 1 m/S 758 mmHg 77%
    06:00 +26°C° 0 mm 1 m/S 759 mmHg 77%
    07:00 +28°C° 0 mm 1 m/S 759 mmHg 73%
    08:00 +29°C° 0 mm 1 m/S 760 mmHg 69%
    09:00 +31°C° 0 mm 1 m/S 760 mmHg 65%
    10:00 +32°C° 0 mm 1 m/S 760 mmHg 62%
    11:00 +33°C° 0 mm 1 m/S 759 mmHg 58%
    12:00 +34°C° 0 mm 1 m/S 759 mmHg 54%
    13:00 +34°C° 0 mm 1 m/S 758 mmHg 54%
    14:00 +34°C° 0 mm 1 m/S 757 mmHg 53%
    15:00 +34°C° 0 mm 1 m/S 757 mmHg 53%
    16:00 +33°C° 0 mm 1 m/S 757 mmHg 57%
    17:00 +32°C° 0 mm 1 m/S 757 mmHg 62%
    18:00 +28°C° 0 mm 0 m/S 757 mmHg 67%
    19:00 +30°C° 0 mm 1 m/S 757 mmHg 70%
    20:00 +29°C° 0 mm 1 m/S 757 mmHg 72%
    21:00 +28°C° 0 mm 1 m/S 758 mmHg 75%
    22:00 +28°C° 0 mm 1 m/S 758 mmHg 76%
    23:00 +28°C° 0 mm 1 m/S 758 mmHg 77%

    21 Oktober, Montag

    Zeit Temperatur Niederschläge Wind Luftdruck Luftfeuchtigkeit
    00:00 +27°C° 0 mm 1 m/S 758 mmHg 78%
    01:00 +27°C° 0 mm 1 m/S 758 mmHg 78%
    02:00 +27°C° 0 mm 1 m/S 757 mmHg 79%
    03:00 +27°C° 0 mm 1 m/S 757 mmHg 79%
    04:00 +26°C° 0 mm 1 m/S 757 mmHg 80%
    05:00 +26°C° 0 mm 1 m/S 757 mmHg 81%
    06:00 +24°C° 0 mm 0 m/S 757 mmHg 82%
    07:00 +28°C° 0 mm 1 m/S 758 mmHg 77%
    08:00 +29°C° 0 mm 1 m/S 758 mmHg 72%
    09:00 +31°C° 0 mm 1 m/S 759 mmHg 67%
    10:00 +32°C° 0 mm 2 m/S 758 mmHg 64%
    11:00 +34°C° 0 mm 2 m/S 758 mmHg 60%
    12:00 +35°C° 0 mm 2 m/S 757 mmHg 57%
    13:00 +35°C° 0 mm 2 m/S 757 mmHg 57%
    14:00 +35°C° 0 mm 2 m/S 756 mmHg 57%
    15:00 +35°C° 0 mm 2 m/S 755 mmHg 57%
    16:00 +34°C° 0 mm 2 m/S 755 mmHg 62%
    17:00 +31°C° 0 mm 2 m/S 755 mmHg 66%
    18:00 +30°C° 0 mm 1 m/S 755 mmHg 71%
    19:00 +29°C° 0 mm 1 m/S 756 mmHg 72%
    20:00 +29°C° 0 mm 1 m/S 756 mmHg 73%
    21:00 +28°C° 0 mm 1 m/S 756 mmHg 74%
    22:00 +28°C° 0 mm 1 m/S 756 mmHg 76%
    23:00 +28°C° 0 mm 1 m/S 756 mmHg 78%
    Mehr zeigen